Location: Unspecified
(0.0000°N, 0.0000°E)
Time: 17:08:41
(UTC+00:00)

ISS - Pass Details

Date: 09 March 2026
Orbit: 417 x 426 km, 51.6° (Epoch: 15 March)

Event Time Altitude Azimuth Distance (km) Brightness Sun altitude
Rises 18:26:48 0° 246° (WSW) 2,377 1.7 -4.1°
Reaches altitude 10° 18:29:40 10° 272° (W) 1,508 1.0 -4.8°
Maximum altitude 18:31:33 14° 306° (NW) 1,277 -0.5 -5.3°
Drops below altitude 10° 18:33:26 10° 340° (NNW) 1,503 -0.7 -5.7°
Sets 18:36:17 0° 6° (N) 2,363 -0.1 -6.4°
